Location: Anumalkud?ru
(16.4847°N, 80.6636°E)
Time: 22:56:44
(UTC+00:00)

Helios 1A Rocket - Pass Details

Date: 11 April 2026
Orbit: 406 x 416 km, 98.3° (Epoch: 9 May)

Event Time Altitude Azimuth Distance (km) Brightness Sun altitude
Rises 02:40:29 0° 210° (SSW) 2,344 5.8 31.5°
Enters shadow 12:44:30 -3° 125° (SE) 2,754 5.8 0.9°
Exits shadow 12:46:40 -7° 141° (SE) 3,276 6.3 0.4°
Reaches altitude 10° 14:10:27 10° 9° (N) 1,499 5.1 -19.2°
Maximum altitude 14:13:39 78° 282° (WNW) 430 2.3 -20.0°
Drops below altitude 10° 14:16:49 10° 196° (SSW) 1,486 5.0 -20.7°
